Location: CCZU
(31.6840°N, 119.9550°E)
Time: 05:41:19
(UTC+08:00)

Tiangong 2 - Visible Passes

Search period start: 26 April 2019 00:00
Search period end: 06 May 2019 00:00
Orbit: 378 x 390 km, 42.8° (Epoch: 25 April)

Date Brightness Start Highest point End Pass type
(mag) Time Alt. Az. Time Alt. Az. Time Alt. Az.
29 Apr 3.1 04:43:57 10° SSW 04:46:29 22° SE 04:49:04 10° E visible
30 Apr 3.9 03:46:05 10° SSE 03:46:52 11° SE 03:47:38 10° ESE visible
01 May 1.7 04:21:11 16° SW 04:23:25 47° SE 04:26:30 10° ENE visible
02 May 3.1 03:24:12 21° SE 03:24:12 21° SE 03:26:13 10° E visible
03 May 1.0 03:59:20 38° WSW 04:00:23 78° NNW 04:03:34 10° NE visible
04 May 3.4 03:02:12 23° E 03:02:12 23° E 03:03:37 10° ENE visible
04 May 2.8 04:34:46 10° WNW 04:37:24 24° NNW 04:40:03 10° NE visible
05 May 1.9 03:37:11 39° NW 03:37:24 39° NNW 03:40:25 10° NE visible
